CZ-4 DEB

Satellite information

Favourite Embed

Satellite Type and Status

DEBRISIN ORBIT

Key statistics

Satellite CZ-4 DEB at a glance.

Uptime

9508

Days in orbit

Revolutions

≈ 14.3

Per day

Orbit

SSO

Sun Synchronous Orbit

Inclination

98.9

Latest

Satellite identification and parameters

Extended collection of information and parameters for CZ-4 DEB.

Object identification

Identified? True

Debris? True

Object name: CZ-4 DEB

International designator: 1999-057NE

Object number (NORAD): 28074

Object ID (CCSDS): 28074

Country: PEOPLES REPUBLIC OF CHINA (PRC)

Current information (Y/N): Y

RCS size: SMALL

Orbital parameters

Period: 100.419 minutes

Inclination: 98.8611 deg

SMA: 7156.561 km

Apoapsis: 851.711 km

Periapsis: 705.142 km

RAAN: 328.3628 deg

Eccentricy: 0.01024023

Argument of periapsis: 337.8789 deg

Mean anomaly: 200.2871 deg

Mean motion: 14.33990109 rev/day

Mean motion (dot): 0.00000291 rev/day2

B* drag term: 0.00011464428 1/REarth

Two-line elements (TLE)

Creation date: Oct. 25, 2025, 3:11 a.m.

Reference frame: TEME

Reference center: EARTH

Epoch: Oct. 24, 2025, 8:16 p.m. UTC

TLE line 0: 0 CZ-4 DEB

TLE line 1: 1 28074U 99057NE 25297.84447582 .00000291 00000-0 11464-3 0 9999

TLE line 2: 2 28074 98.8611 328.3628 0102402 337.8789 200.2871 14.33990109189762

Live tracking on map

Real-time ground track for satellite CZ-4 DEB.

In-orbit conjunctions

A list of the most updated potential collisions computed for object CZ-4 DEB.

Target Orbit TCA Probability of collision Miss distance Type
PEGASUS R/B LEO 2025-07-02 00:21:14 0.0009873148 24.0 (m) ROCKET BODY
FENGYUN 1C DEB SSO 2024-08-01 02:25:37 0.0002814506 151.0 (m) DEBRIS
EXPLORER 11 LEO 2024-07-20 21:54:33 0.0001684341 842.0 (m) PAYLOAD

Associated space launch

The CBERS (China Brazil Earth Resources Satellite) or ZY 1 (Zi Yuan) satellites are designed for global coverage and include cameras to make optical observations and a data collecting system to gather data on the environment. They are unique systems due to the use of on-board sensors which combine features that are especially designed to resolve the broad range of space and time scales involved in the monitoring and preservation of the ecosystem. They are operated jointly by the China Centre for Resources Satellite Data and Application (CRESDA) and the Brazilian INPE (Instituto Nacional de Pesquisas Espaciais, National Institute of Space Research).

CZ-4 DEB was lifted into orbit during the mission ‘Long March 4B | Zi Yuan 1-1’, on board a Long March 4B space rocket.

The launch took place on Oct. 14, 1999, 3:15 a.m. from Launch Complex 7.

For more information about the launch, click the button.

Launch to space Long March 4B | Zi Yuan 1-1
Long March 4B | Zi Yuan 1-1

Agency: N/A

Status: Launch Successful

Launch date: Oct. 14, 1999, 3:15 a.m. UTC

Rocket: Long March 4B

Launch pad: Launch Complex 7

Location: Taiyuan Satellite Launch Center, People's Republic of China

...

Latest news about this satellite

There are no fresh news available about this satellite. Check back as we update our databases every day.


Newsletter sign-up

Weekly statistics, charts and insights to help you stay on top of the space industry.